Location: Divi�ov
(49.7876°N, 14.8767°E)
Time: 03:16:51
(UTC+00:00)

Daily predictions for brighter satellites

Satellite Brightness Start Highest point End
(mag) Time Altitude Azimuth Time Altitude Azimuth Time Altitude Azimuth
CENTAUR R/B 3.3 02:02:59 46° ESE 02:02:59 46° ESE 02:09:09 10° NE
CZ-2C R/B 3.9 02:23:34 10° NNE 02:28:07 34° E 02:29:29 29° SE
ARIANE 5 R/B 4.3 02:23:24 10° NNE 02:25:19 24° N 02:25:19 24° N
ISS -0.4 02:36:08 12° E 02:36:08 12° E 02:36:32 10° E
Cosmos 1697 Rocket 3.2 02:35:00 48° NNE 02:36:09 58° NE 02:41:43 10° SE
Cosmos 2344 3.4 02:37:40 71° SW 02:38:39 87° NW 02:46:56 10° NE
ADEOS II 4.2 02:34:18 10° N 02:35:25 16° N 02:35:25 16° N
Lacrosse 4 Rocket 3.1 02:42:01 30° ENE 02:42:01 30° ENE 02:44:21 10° NE
COSMOS 2406 4.0 02:39:30 38° SSE 02:41:00 47° ESE 02:46:25 10° NE
USA 238 DEB 3.5 02:41:03 81° WNW 02:41:11 82° NW 02:48:11 10° NE
USA 238 3.5 02:41:08 82° WNW 02:41:17 82° NW 02:48:17 10° NE
NOSS 3-2 (A) 3.4 02:44:26 71° NNW 02:44:26 71° NNW 02:50:52 10° NE
Lacrosse 5 rocket 3.2 02:50:06 24° ESE 02:50:06 24° ESE 02:52:20 10° ENE
ATLAS 3B R/B 4.0 02:45:39 13° S 02:50:49 34° ESE 02:56:40 10° NE
PAYLOAD A 4.3 02:49:01 10° NNE 02:54:06 65° ESE 02:55:43 43° SSE
USA 234 3.4 02:51:49 10° ENE 02:58:13 59° NNW 02:59:22 52° WNW
Cosmos 1980 Rocket 3.0 02:54:36 16° NNW 02:58:51 49° NE 03:04:15 10° SE
ADEOS Rocket 2.6 02:56:33 10° SSE 03:02:02 84° WSW 03:07:45 10° NNW
ERS-2 3.7 03:02:39 10° SE 03:04:42 30° SE 03:04:42 30° SE
Cosmos 2180 Rocket 4.3 03:00:08 10° NNW 03:06:25 76° W 03:12:34 10° S
Nadezhda 4 Rocket 4.4 03:00:46 10° S 03:06:46 61° E 03:12:49 10° NNE
Cosmos 2228 4.0 03:02:32 10° N 03:06:46 47° ENE 03:11:00 10° SSE
Geosat 4.1 03:03:36 10° SE 03:08:36 74° ENE 03:10:57 32° NNW
Cosmos 1269 Rocket 3.9 03:09:18 74° SW 03:09:46 83° WNW 03:15:07 10° NNE
Cosmos 2360 4.1 03:13:18 26° NNW 03:16:38 87° ENE 03:22:20 10° SSE
Cosmos 1606 Rocket 4.2 03:12:47 10° N 03:17:13 57° ENE 03:21:38 10° SSE
Cosmos 1400 Rocket 4.2 03:15:33 10° N 03:19:17 38° ENE 03:22:56 10° SE
IDEFIX/ARIANE 42P 3.8 03:15:57 10° N 03:18:52 27° NNW 03:18:52 27° NNW
Intercosmos 24 3.8 03:24:20 10° N 03:28:20 76° E 03:31:52 10° SSE
Cosmos 2278 3.7 03:24:14 13° NNW 03:29:18 79° ENE 03:34:57 10° SSE
COSMO-SKYMED 1 4.0 03:25:57 10° SE 03:29:58 39° ENE 03:34:02 10° N
Cosmos 2322 Rocket 4.1 03:25:34 10° NNW 03:30:24 27° NE 03:35:11 10° E
MSX 4.2 03:26:26 10° N 03:31:47 41° WNW 03:32:03 41° WNW
Cosmos 1300 3.0 03:29:50 10° N 03:33:40 66° E 03:37:27 10° SSE
Cosmos 220 Rocket 3.9 03:32:31 47° NW 03:33:43 75° WSW 03:38:08 10° SSE
ALOS 2.9 03:29:20 10° NNE 03:33:57 58° E 03:38:33 10° S
In-Cosmos 22 4.3 03:35:42 44° W 03:36:00 44° WNW 03:41:15 10° N
CZ-4B R/B 1.4 03:33:03 10° SSE 03:36:31 84° ENE 03:37:09 57° N
Cosmos 1833 Rocket 2.6 03:33:50 23° SSW 03:37:30 88° WNW 03:43:12 10° NNE
Cosmos 1992 Rocket 3.8 03:34:01 13° NNW 03:38:41 79° WSW 03:43:53 10° SSE
Cosmos 1674 4.2 03:42:36 23° NNW 03:42:36 23° NNW 03:44:18 10° N
SL-14 R/B 3.4 03:36:51 10° S 03:40:49 74° E 03:44:51 10° NNE
Cosmos 1626 2.0 03:39:55 33° S 03:41:30 89° W 03:45:14 10° N
Cosmos 1689 Rocket 3.6 03:41:38 10° SE 03:44:22 37° ENE 03:47:07 10° N
deb Chang Zheng 4 4.0 03:41:16 10° NNE 03:45:30 62° ESE 03:49:44 10° S
NOSS 3-2 (C) 3.7 03:43:22 36° W 03:45:37 53° NW 03:52:19 10° NE
Cosmos 1536 Rocket 4.5 03:48:18 31° NW 03:48:18 31° NW 03:51:32 10° N
deb Kosmos-1763 3.9 03:46:47 37° SSW 03:48:06 88° ESE 03:51:43 10° NNE
Cosmos 2058 Rocket 3.5 03:47:06 10° N 03:51:37 64° ENE 03:56:03 10° SSE
Cosmos 2369 3.8 03:49:30 21° NW 03:53:06 49° WSW 03:58:31 10° S
CENTAUR R/B 2.9 03:50:11 31° W 03:53:09 52° NW 04:00:26 10° NE
Cosmos 1484 Rocket 2.6 03:52:36 10° NNE 03:56:30 85° WNW 04:00:18 10° SSW
Meteor 1-24 Rocket 3.8 03:51:20 10° S 03:56:59 85° E 04:02:54 10° NNE
CBERS 1 LM4 rocket 4.4 03:52:13 10° N 03:57:05 59° WNW 04:01:47 10° SSW
Cosmos 2082 Rocket 2.2 03:54:47 10° SSW 04:00:23 82° ESE 04:06:03 10° NNE
Cosmos 1461 3.1 03:57:50 20° SW 04:00:57 87° NW 04:05:43 10° NE
Cosmos 1892 Rocket 3.6 03:58:04 10° S 04:02:24 79° E 04:06:49 10° NNE
Cosmos 2026 Rocket 4.2 03:57:26 10° S 04:03:48 77° E 04:10:11 10° NNE
PSLV R/B 4.2 04:00:55 10° N 04:04:46 33° WNW 04:05:31 30° W
CZ-2C R/B 2.9 04:01:47 10° N 04:06:22 36° WNW 04:08:51 22° WSW
ARIANE 5 R/B 4.4 04:04:17 10° NNW 04:05:38 13° NW 04:05:38 13° NW
SL-16 R/B 3.0 04:01:24 10° NNW 04:06:56 50° NE 04:12:27 10° SE
Cosmos 2195 Rocket 4.4 04:02:33 10° S 04:08:46 87° W 04:14:59 10° N
USA 290 2.1 04:06:41 17° SSW 04:09:01 81° WNW 04:12:17 10° NNE
CREW DRAGON DEMO-1 DEB 2.7 04:08:42 46° W 04:09:26 74° SSW 04:12:26 10° ESE
ISS -3.7 04:09:06 33° WSW 04:10:28 75° SSE 04:13:50 10° ENE
Cosmos 2251 Rocket 3.5 04:06:12 10° SSW 04:11:34 84° WNW 04:16:57 10° NNE
Cosmos 2333 Rocket 4.4 04:12:19 10° N 04:16:19 19° NE 04:20:18 10° E
SKYMED 2 3.5 04:13:37 10° S 04:17:58 74° WSW 04:22:20 10° NNW
Lacrosse 4 Rocket 2.5 04:18:22 23° WNW 04:19:19 25° NW 04:22:43 10° NNE
Cosmos 1697 Rocket 3.5 04:16:51 18° WNW 04:19:46 28° WSW 04:24:28 10° SSW
PSLV R/B 3.9 04:16:28 10° S 04:20:40 78° WSW 04:24:55 10° NNW
Meteor 1-31 Rocket 2.7 04:17:18 10° N 04:21:14 63° WNW 04:25:07 10° SSW
Cosmos 1455 3.3 04:18:06 10° N 04:21:53 48° ENE 04:25:38 10° SSE
COSMOS 2406 3.8 04:21:37 17° WSW 04:25:28 37° NW 04:30:43 10° NNE
CZ-4B R/B 3.0 04:21:55 10° NNE 04:25:57 84° ESE 04:30:11 10° SSW
[s.n.46727] 2.8 04:25:26 21° SW 04:27:05 64° SSE 04:29:49 10° ENE
[s.n.46723] 2.8 04:25:27 20° SW 04:27:10 65° SSE 04:29:57 10° ENE
[s.n.46707] 2.8 04:25:36 21° SW 04:27:16 64° SSE 04:30:00 10° ENE
[s.n.46708] 2.8 04:25:41 21° SW 04:27:21 65° SSE 04:30:05 10° ENE
[s.n.46719] 2.8 04:25:47 21° SW 04:27:27 65° SSE 04:30:11 10° ENE
[s.n.46724] 2.8 04:25:52 20° SW 04:27:32 65° SSE 04:30:16 10° ENE
[s.n.46687] 2.8 04:25:57 20° SW 04:27:37 65° SSE 04:30:22 10° ENE
[s.n.46696] 2.8 04:26:02 20° SW 04:27:43 65° SSE 04:30:27 10° ENE
[s.n.46720] 2.8 04:26:08 20° SW 04:27:48 65° SSE 04:30:32 10° ENE
[s.n.46676] 2.8 04:26:12 20° SW 04:27:53 65° SSE 04:30:38 10° ENE
[s.n.46721] 2.8 04:26:18 20° SW 04:27:59 65° SSE 04:30:44 10° ENE
Lacrosse 5 rocket 1.2 04:25:46 21° W 04:28:00 56° NNW 04:31:48 10° NE
[s.n.46728] 2.8 04:26:23 20° SW 04:28:04 65° SSE 04:30:49 10° ENE
[s.n.46690] 2.8 04:26:28 20° SW 04:28:09 66° SSE 04:30:54 10° ENE
[s.n.46694] 2.8 04:26:32 20° SW 04:28:13 66° SSE 04:30:58 10° ENE
[s.n.46702] 2.8 04:26:39 20° SW 04:28:21 66° SSE 04:31:05 10° ENE
[s.n.46679] 2.8 04:26:42 20° SW 04:28:25 66° SSE 04:31:09 10° ENE
FENGYUN 3A 3.8 04:23:11 10° N 04:28:28 53° WNW 04:33:44 10° SW
[s.n.46704] 2.8 04:26:44 20° SW 04:28:30 66° SSE 04:31:16 10° ENE
[s.n.46712] 2.8 04:26:50 20° SW 04:28:33 66° SSE 04:31:17 10° ENE
Meteor 2-5 Rocket 4.0 04:23:11 10° SW 04:28:40 47° WNW 04:34:19 10° N
[s.n.46711] 2.8 04:26:58 20° SW 04:28:41 66° SSE 04:31:27 10° ENE
[s.n.46684] 2.8 04:27:00 20° SW 04:28:43 66° SSE 04:31:28 10° ENE
[s.n.46706] 2.8 04:27:09 20° SW 04:28:52 66° SSE 04:31:37 10° ENE
[s.n.46678] 2.8 04:27:07 20° SW 04:28:54 67° SSE 04:31:42 10° ENE
[s.n.46677] 2.8 04:27:17 20° SW 04:29:01 67° SSE 04:31:45 10° ENE
[s.n.46671] 2.8 04:27:22 20° SW 04:29:06 67° SSE 04:31:50 10° ENE
[s.n.46675] 2.8 04:27:27 20° SW 04:29:11 67° SSE 04:31:56 10° ENE
[s.n.46674] 2.8 04:27:33 20° SW 04:29:17 67° SSE 04:32:02 10° ENE
[s.n.46698] 2.8 04:27:38 20° SW 04:29:23 67° SSE 04:32:07 10° ENE
[s.n.46699] 2.8 04:27:39 19° SW 04:29:27 67° SSE 04:32:14 10° ENE
[s.n.46715] 2.7 04:27:48 19° SW 04:29:33 67° SSE 04:32:18 10° ENE
[s.n.46714] 2.7 04:27:53 19° SW 04:29:39 67° SSE 04:32:23 10° ENE
[s.n.46726] 2.7 04:27:59 19° SW 04:29:44 67° SSE 04:32:29 10° ENE
[s.n.46703] 2.7 04:28:04 19° SW 04:29:49 68° SSE 04:32:34 10° ENE
[s.n.46713] 2.7 04:28:09 19° SW 04:29:55 68° SSE 04:32:40 10° ENE
[s.n.46717] 2.7 04:28:14 19° SW 04:30:01 68° SSE 04:32:45 10° ENE
[s.n.46691] 2.8 04:28:16 19° SW 04:30:05 68° SSE 04:32:52 10° ENE
[s.n.46693] 2.7 04:28:25 19° SW 04:30:12 68° SSE 04:32:56 10° ENE
[s.n.46672] 2.7 04:28:30 19° SW 04:30:17 68° SSE 04:33:02 10° ENE
[s.n.46701] 2.7 04:28:35 19° SW 04:30:22 68° SSE 04:33:07 10° ENE
[s.n.46685] 2.7 04:28:40 19° SW 04:30:28 68° SSE 04:33:13 10° ENE
[s.n.46709] 2.7 04:28:46 19° SW 04:30:33 68° SSE 04:33:18 10° ENE
[s.n.46683] 2.7 04:28:50 19° SW 04:30:38 69° SSE 04:33:23 10° ENE
[s.n.46695] 2.7 04:28:55 19° SW 04:30:43 69° SSE 04:33:28 10° ENE
[s.n.46688] 2.7 04:29:02 19° SW 04:30:50 69° SSE 04:33:35 10° ENE
[s.n.46729] 2.7 04:29:06 19° SW 04:30:54 69° SSE 04:33:39 10° ENE
[s.n.46697] 2.7 04:29:09 19° SW 04:30:57 69° SSE 04:33:43 10° ENE
[s.n.46725] 2.7 04:29:14 19° SW 04:31:02 69° SSE 04:33:47 10° ENE
[s.n.46682] 2.7 04:29:19 19° SW 04:31:07 69° SSE 04:33:53 10° ENE
[s.n.46680] 2.7 04:29:25 19° SW 04:31:13 69° SSE 04:33:59 10° ENE
Cosmos 2360 Rocket 3.5 04:26:02 10° NNW 04:31:17 38° NE 04:36:30 10° ESE
[s.n.46718] 2.7 04:29:30 19° SW 04:31:19 69° SSE 04:34:05 10° ENE
[s.n.46710] 2.7 04:29:35 19° SW 04:31:25 69° SSE 04:34:09 10° ENE
[s.n.46673] 2.7 04:29:46 19° SW 04:31:36 70° SSE 04:34:21 10° ENE
[s.n.46700] 2.7 04:29:51 19° SW 04:31:41 70° SSE 04:34:27 10° ENE
[s.n.46705] 2.7 04:29:56 19° SW 04:31:47 70° SSE 04:34:32 10° ENE
[s.n.46692] 2.7 04:30:02 18° SW 04:31:53 70° SSE 04:34:38 10° ENE
[s.n.46686] 2.7 04:30:07 18° SW 04:31:58 70° SSE 04:34:43 10° ENE
[s.n.46716] 2.7 04:30:12 18° SW 04:32:03 70° SSE 04:34:49 10° ENE
[s.n.46722] 2.7 04:30:17 18° SW 04:32:09 70° SSE 04:34:54 10° ENE
[s.n.46689] 2.7 04:30:23 18° SW 04:32:14 71° SSE 04:35:00 10° ENE
[s.n.46681] 2.7 04:30:28 18° SW 04:32:19 71° SSE 04:35:05 10° ENE
DNEPR-1 R/B 4.3 04:28:08 10° NW 04:33:30 61° NE 04:37:59 10° SE
Cosmos 1812 Rocket 4.4 04:30:48 10° N 04:35:04 53° ENE 04:39:18 10° SSE
SAR-Lupe-4 4.5 04:34:54 10° SSW 04:37:59 27° W 04:41:06 10° NW
Cosmos 1726 Rocket 4.4 04:35:08 10° NNW 04:38:59 29° W 04:42:51 10° SSW
ERS-2 3.9 04:37:56 10° SW 04:39:17 14° WSW 04:39:17 14° WSW
USA 234 3.8 04:34:29 10° ENE 04:40:42 48° N 04:46:42 11° WNW
ATLAS 3B R/B 2.6 04:34:35 10° SW 04:41:08 66° NW 04:47:49 10° NE
Cosmos 1980 Rocket 2.8 04:37:43 10° NW 04:42:40 33° WSW 04:47:35 10° SSW
Cosmos 2098 Rocket 3.8 04:36:48 10° S 04:42:41 73° E 04:47:21 10° NNE
Cosmos 2228 4.3 04:40:47 10° NW 04:43:59 20° W 04:47:11 10° SW
Abrixas rocket 3.9 04:43:59 12° WSW 04:45:23 16° SSW 04:47:17 10° SSE
ATLAS CENTAUR R/B 3.3 04:43:13 10° S 04:46:39 30° ESE 04:49:59 10° ENE
Envisat 4.1 04:42:40 10° NNE 04:47:37 49° E 04:52:31 10° S
Cosmos 1092 Rocket 4.3 04:42:06 10° SW 04:47:56 43° WNW 04:53:53 10° N
CZ-2C R/B 4.1 04:43:22 10° SE 04:48:33 41° ENE 04:53:47 10° N
ADEOS Rocket 4.3 04:46:02 10° WSW 04:48:37 13° W 04:51:15 10° NW
ADEOS 4.2 04:44:40 10° N 04:49:24 35° WNW 04:54:06 10° SW
Aureole 3 4.4 04:49:01 10° NNW 04:52:44 32° W 04:57:16 10° SSW
Cosmos 407 Rocket 3.6 04:48:36 10° SSW 04:53:43 80° ESE 04:58:55 10° NNE
Meteor 2-19 Rocket 4.4 04:48:00 10° S 04:54:05 83° W 05:00:13 10° N
Cosmos 2344 4.4 04:47:41 11° W 04:54:21 37° NNW 05:02:44 10° NE
CZ-3 R/B 4.2 04:42:08 10° WSW 04:55:09 22° SSW 05:01:02 10° SSE
Cosmos 1400 Rocket 4.1 04:52:34 10° NW 04:55:30 20° W 04:58:23 10° SW
Cosmos 1140 Rocket 3.9 04:51:22 10° SSW 04:56:27 69° ESE 05:01:34 10° NNE
Cosmos 2219 Rocket 4.0 04:52:31 10° NNW 04:57:18 27° NE 05:02:03 10° ESE
NOSS 8 (A) 4.1 04:57:00 10° SW 05:00:09 65° NW 05:03:06 10° NE
Cosmos 1607 4.5 04:57:36 10° NW 05:04:05 65° NE 05:10:31 10° SE
TELKOM 3 4.1 05:02:09 10° WSW 05:05:34 83° S 05:09:49 10° E
COSMO-SKYMED 1 3.6 05:02:37 10° SSW 05:06:15 26° W 05:09:54 10° NW
S3M 4.0 05:01:14 10° NNW 05:07:30 70° W 05:13:48 10° S
Cosmos 2292 Rocket 3.0 05:07:25 10° SSW 05:10:38 76° W 05:14:39 10° N
ALOS 3.5 05:07:30 10° NNW 05:11:00 22° WNW 05:14:32 10° WSW
Cosmos 1655 Rocket 4.1 05:05:19 10° S 05:11:37 83° W 05:18:01 10° N
Meteor 2-10 Rocket 3.9 05:09:14 10° NNW 05:13:52 38° W 05:18:32 10° SSW
Cosmos 2322 Rocket 2.2 05:09:20 10° NNW 05:15:00 71° WSW 05:20:36 10° SSE
Cosmos 2266 Rocket 4.1 05:10:49 10° S 05:16:51 87° E 05:22:59 10° N
